Probability
0 0 0 0 0 0 0 0 0 1 1 1 2 3 3 2 1 0 1 0 0 0 1 2 4 5 4 2 1 2 1 0 0 0 0 0 0 0 0 0 0 0 0 0
0 0 0 0 0 0 0 1 1 1 2 2 3 3 3 2 1 1 2 1 0 0 1 2 3 4 4 2 2 3 2 0 0 0 0 0 0 0 0 0 0 0 0 0
0 0 0 0 0 0 1 2 2 1 2 4 5 4 3 2 3 5 4 1 0 0 1 1 1 1 2 3 3 2 1 0 0 0 0 0 0 0 0 0 0 0 0 0
0 0 0 0 0 2 3 3 1 1 3 5 6 5 4 3 5 7 6 3 1 0 0 0 0 0 2 3 3 1 0 0 1 0 0 0 0 0 0 0 0 0 0 0
0 0 0 0 1 3 5 3 1 2 5 6 6 6 5 4 5 6 5 3 1 0 0 0 0 0 1 2 2 1 0 0 0 0 0 0 0 0 0 0 0 0 0 0
0 0 0 0 0 2 4 3 2 3 6 6 6 5 4 4 4 4 3 1 0 0 0 0 0 0 1 1 1 0 0 0 0 0 0 0 0 0 0 0 0 0 0 0
0 0 0 0 0 1 2 2 1 3 5 5 4 3 3 2 2 1 1 0 0 0 0 0 0 0 0 0 0 0 0 0 0 0 0 0 0 0 0 0 0 0 0 0
0 0 0 0 0 0 0 0 1 2 3 3 3 2 2 1 0 0 0 0 0 0 0 0 0 0 0 0 0 0 0 0 0 0 0 0 0 0 0 0 0 0 0 0
0 0 0 0 0 0 0 0 1 2 2 2 2 1 1 0 0 0 0 0 0 0 0 0 0 0 0 0 0 0 0 0 0 0 0 0 0 0 0 0 0 0 0 0
0 0 0 1 1 0 0 0 0 1 1 1 1 0 0 0 0 0 0 0 0 0 0 0 0 0 0 0 0 0 0 0 0 0 0 0 0 0 0 0 0 0 0 0
0 0 0 1 1 0 0 0 0 0 0 0 0 0 0 0 0 0 0 0 0 0 0 0 0 0 0 0 0 0 0 0 0 0 0 0 0 0 0 0 0 0 0 0
0 0 0 1 1 0 0 1 0 0 0 0 0 0 0 0 0 0 0 0 0 0 0 0 0 0 0 0 0 0 0 0 0 0 0 0 0 0 0 0 0 0 0 0
0 0 0 0 0 0 0 0 0 0 0 0 0 0 0 0 0 0 0 0 0 0 0 0 0 0 0 0 0 0 0 0 0 0 0 0 0 0 0 0 0 0 0 0
0 0 0 0 0 0 0 0 0 0 0 0 0 0 0 0 0 0 0 0 0 0 0 0 0 0 0 0 0 0 0 0 0 0 0 0 0 0 0 0 0 0 0 0
0 0 0 0 0 0 0 0 0 0 0 0 0 0 0 0 0 0 0 0 0 0 0 0 0 0 0 0 0 0 0 0 0 0 0 0 0 0 0 0 0 0 0 0
0 0 0 0 0 0 0 0 0 0 0 0 0 0 0 0 0 0 0 0 0 0 0 0 0 0 0 0 0 0 0 0 0 0 0 0 0 0 0 0 0 0 0 0
0 0 0 0 0 0 0 0 0 0 0 0 0 0 0 0 0 0 0 0 0 0 0 0 0 0 0 0 0 0 0 0 0 0 0 0 0 0 0 0 0 0 0 0
0 0 0 0 0 0 0 0 0 0 0 0 0 0 0 0 0 0 0 0 0 0 0 0 0 0 0 0 0 0 0 0 0 0 0 0 0 0 0 0 0 0 0 0
0 0 0 0 0 0 0 0 0 0 0 0 0 0 0 0 0 0 0 0 0 0 0 0 0 0 0 0 0 0 0 0 0 0 0 0 0 0 0 0 0 0 0 0
0 0 0 0 0 0 0 0 0 0 0 0 0 0 0 0 0 0 0 0 0 0 0 0 0 0 0 0 0 0 0 0 0 0 0 0 0 0 0 0 0 0 0 0
0 0 0 0 0 0 0 0 0 0 0 0 0 0 0 0 0 0 0 0 0 0 0 0 0 0 0 0 0 0 0 0 0 0 0 0 0 0 0 0 0 0 0 0
0 0 0 0 0 0 0 0 0 0 0 0 0 0 0 0 0 0 0 0 0 0 0 0 0 0 0 0 0 0 0 0 0 0 0 0 0 0 0 0 0 0 0 0
0 0 0 0 0 0 0 0 0 0 0 0 0 0 0 0 0 0 0 0 0 0 0 0 0 0 0 0 0 0 0 0 0 0 0 0 0 0 0 0 0 0 0 0
0 0 0 0 0 0 0 0 0 0 0 0 0 0 0 0 0 0 0 0 0 0 0 0 0 0 0 0 0 0 0 0 0 0 0 0 0 0 0 0 0 0 0 0
0 0 0 0 0 0 0 0 0 0 0 0 0 0 0 0 0 0 0 0 0 0 0 0 0 0 0 0 0 0 0 0 0 0 0 0 0 0 0 0 0 0 0 0
0 0 0 0 0 0 0 0 0 0 0 0 0 0 0 0 0 0 0 0 0 0 0 0 0 0 0 0 0 0 0 0 0 0 0 0 0 0 0 0 0 0 0 0
0 0 0 0 0 0 0 0 0 0 0 0 0 0 0 0 0 0 0 0 0 0 0 0 0 0 0 0 0 0 0 0 0 0 0 0 0 0 0 0 0 0 0 0
Wind_Speed
5 5 4 5 6 6 7 8 9 8 8 8 6 5 5 5 6 6 6 6 6 6 5 5 5 6 6 6 6 6 6 5 5 4 4 4 4 4 4 3 3 3 2 3
3 5 5 5 7 8 8 6 6 5 7 5 2 4 4 5 7 7 6 6 6 5 5 5 6 6 6 6 7 7 7 6 5 4 4 3 3 3 3 2 2 2 2 2
4 4 1 6 8 9 7 6 7 9 9 3 3 4 5 6 7 7 7 6 6 5 5 4 4 5 6 5 6 6 6 5 5 4 4 3 3 3 2 2 3 3 3 3
3 1 7 9 2 4 5 5 6 5 4 5 6 5 4 4 6 7 6 6 6 5 5 4 5 6 6 7 7 7 6 5 5 5 5 4 4 4 3 3 4 4 5 5
3 4 7 5 2 3 3 4 4 5 5 8 10 8 6 5 6 7 7 7 6 6 7 7 7 7 9 9 8 7 7 6 5 6 6 5 5 5 4 5 6 6 5 6
3 4 7 7 2 0 2 4 3 5 8 10 7 5 3 5 8 10 9 9 8 9 10 9 7 8 11 10 9 7 7 6 6 6 7 7 6 6 5 6 6 6 7 7
4 5 7 4 2 1 5 6 2 4 7 6 3 5 10 10 9 10 10 10 10 11 10 8 8 10 12 11 9 7 7 8 8 7 8 7 7 6 6 7 7 7 8 7
3 4 7 3 2 2 4 1 1 3 6 8 11 14 13 13 11 11 12 11 11 11 11 9 8 12 13 10 7 8 9 9 9 8 7 7 8 7 6 7 7 6 6 6
5 6 4 2 4 4 2 1 1 4 7 13 15 14 14 12 11 11 12 11 9 12 12 10 9 10 13 7 7 8 10 9 8 8 7 6 6 6 5 5 5 4 4 4
4 5 4 5 4 3 1 2 4 7 10 13 15 15 14 12 10 10 11 10 10 11 12 10 8 9 8 6 7 9 9 8 7 7 7 7 6 5 5 4 4 4 3 3
4 5 4 3 3 1 2 6 9 10 10 12 16 15 14 12 11 10 9 9 9 10 11 9 8 8 7 6 8 9 8 7 7 7 6 7 7 6 5 4 3 3 3 2
4 4 2 3 3 1 6 9 11 13 13 11 12 15 15 12 10 10 9 9 10 10 10 8 8 7 6 5 7 8 7 6 5 5 5 5 6 7 12 10 11 10 8 6
3 0 1 1 4 5 8 10 11 12 14 14 12 13 14 12 10 10 10 10 9 9 8 8 8 7 5 5 7 7 6 5 4 4 5 4 4 5 5 7 10 11 10 10
0 2 3 5 7 9 12 13 14 15 13 13 12 13 13 12 11 11 10 9 9 9 8 8 8 7 5 5 7 7 6 6 5 4 4 4 4 4 4 4 4 4 6 8
6 6 7 8 10 11 12 14 16 14 14 13 12 12 13 12 11 10 9 9 9 9 8 7 7 5 4 6 7 7 5 4 4 5 5 5 5 4 4 4 4 3 3 4
8 10 11 12 12 12 12 14 15 13 12 12 12 11 11 11 11 10 8 8 9 8 6 6 5 3 4 6 7 5 5 8 7 5 5 5 4 4 4 3 3 3 3 3
8 8 9 11 11 11 10 11 12 12 11 12 11 11 12 12 11 9 7 7 8 6 5 5 4 4 4 5 6 4 4 6 8 6 4 4 4 3 3 3 2 2 2 3
8 7 7 10 11 11 10 11 11 11 10 10 10 11 10 10 9 8 7 7 8 7 5 3 4 4 5 5 5 4 4 4 4 4 4 3 3 3 2 2 2 2 2 3
11 10 9 10 9 10 10 9 9 8 8 9 10 9 8 8 7 7 7 7 7 5 2 3 5 5 5 5 6 4 5 5 4 4 3 4 3 2 2 1 1 2 2 2
11 10 10 10 9 9 9 9 9 8 7 8 9 9 8 7 7 7 7 5 3 2 2 4 5 5 4 5 6 4 5 5 4 3 3 3 2 2 2 1 2 2 2 2
10 10 10 10 9 8 8 8 8 8 6 7 8 8 7 6 6 6 6 4 2 2 4 5 4 4 3 4 6 4 4 4 3 3 2 2 2 2 2 2 2 2 2 2
8 9 9 9 9 8 6 6 7 7 7 6 7 7 7 7 6 6 4 3 3 4 4 3 3 4 6 6 4 4 4 3 3 2 2 2 2 2 2 2 2 2 2 2
8 8 8 8 8 7 7 6 6 6 6 6 6 6 6 5 4 5 4 2 3 5 4 3 5 7 8 5 4 4 4 3 3 2 2 2 2 1 1 1 1 1 2 2
8 8 7 6 7 8 7 5 5 5 6 5 5 5 6 5 3 3 3 5 6 6 4 4 7 8 7 4 3 3 3 3 2 2 2 2 1 1 0 1 1 1 2 3
7 7 7 7 6 5 4 5 6 6 6 5 5 5 4 3 4 3 4 5 6 6 4 5 7 6 4 3 3 2 2 2 2 1 1 1 0 0 0 1 1 2 2 3
5 5 4 4 3 3 3 4 3 3 4 4 3 3 4 4 5 5 4 4 5 5 4 3 3 3 2 2 2 2 1 1 1 1 1 1 1 1 1 1 2 2 2 3
6 5 4 4 3 3 3 3 4 3 3 4 4 3 4 4 4 4 5 4 3 3 3 2 2 2 1 1 1 1 1 1 1 1 1 1 1 2 2 2 2 2 3 3
Wind_Direction
237 242 222 227 228 195 195 192 192 224 228 250 233 205 184 159 147 140 146 150 156 163 165 161 161 164 166 165 161 162 161 168 181 176 170 169 175 184 186 188 200 200 199 219
269 253 239 247 243 217 220 210 217 230 250 246 193 137 138 149 153 149 149 151 150 148 151 157 165 165 161 161 159 156 159 166 159 153 157 160 164 163 160 160 156 143 168 180
249 272 290 249 225 206 205 206 191 211 227 172 150 152 156 154 152 148 141 137 137 139 142 144 146 147 149 144 136 138 141 136 133 136 133 125 124 117 116 111 108 110 112 104
212 212 230 240 238 206 201 220 210 212 197 165 149 119 92 110 133 129 124 123 122 120 114 107 110 114 114 110 115 117 116 113 114 115 108 103 100 94 88 89 93 92 87 89
165 218 267 280 247 186 187 243 212 188 159 133 129 100 65 56 88 101 103 101 100 98 96 97 101 106 104 99 100 103 103 100 97 101 99 90 83 83 86 90 86 82 80 81
168 199 237 248 255 216 123 256 228 181 163 155 145 135 138 99 93 91 88 88 91 90 90 89 91 101 99 95 93 91 92 90 85 89 92 90 86 84 83 87 86 84 77 70
200 224 256 268 308 89 194 240 213 170 159 155 144 129 123 111 97 93 91 90 90 87 83 82 89 94 91 88 84 84 85 83 80 82 87 89 84 78 83 85 82 79 78 67
186 214 252 327 14 212 246 312 144 132 127 119 115 115 115 110 106 102 95 88 88 89 83 74 81 93 90 82 78 81 82 79 75 72 78 84 84 78 78 87 86 80 78 66
206 227 261 291 264 271 254 238 172 137 129 126 123 120 115 111 109 104 100 95 92 94 88 73 67 85 93 85 84 83 80 76 74 72 69 74 83 85 79 78 88 86 81 76
265 273 284 291 288 288 233 177 143 135 130 126 124 122 118 113 108 105 103 101 99 96 90 79 72 76 86 91 90 88 83 76 74 76 71 64 62 67 78 80 90 94 91 83
258 279 299 306 315 333 109 122 121 120 120 124 125 124 122 117 112 107 101 96 94 95 94 88 80 74 73 81 90 87 81 77 74 73 78 72 64 53 59 56 76 101 97 94
244 266 256 292 324 71 118 121 122 120 113 111 119 121 118 115 112 111 106 100 96 93 93 88 82 74 65 73 90 94 87 79 78 81 82 88 90 73 52 61 65 70 76 79
245 328 81 6 50 83 102 108 112 113 115 113 110 115 114 112 110 108 104 101 100 98 95 91 84 72 60 71 85 89 94 91 86 88 94 96 96 98 85 57 56 59 59 59
352 78 59 51 74 81 97 102 102 100 101 106 109 109 108 107 106 105 104 103 103 99 93 89 83 69 55 75 85 85 86 87 90 90 95 97 98 98 99 97 73 47 37 40
43 73 95 92 87 88 94 102 101 101 103 102 104 107 110 111 109 105 103 104 100 94 89 87 83 67 55 79 86 86 85 84 83 85 86 88 89 90 89 88 82 63 35 25
83 84 90 92 92 92 96 100 103 104 106 106 105 104 104 105 103 100 99 105 105 101 97 93 85 69 73 87 89 82 82 95 94 90 87 85 85 87 85 82 75 60 39 19
104 100 102 101 96 93 91 95 100 104 104 105 106 106 105 104 102 100 96 95 98 98 95 98 94 82 82 91 96 94 89 94 98 92 90 91 92 91 89 85 74 49 19 359
94 98 105 110 110 104 97 97 101 104 107 110 110 109 111 114 117 115 109 102 95 81 65 73 89 88 86 91 95 99 99 97 97 97 92 89 89 88 87 79 57 31 7 0
99 98 96 97 101 103 101 100 99 101 104 107 106 104 105 109 113 113 109 106 104 96 58 62 92 91 89 97 102 96 102 102 97 92 93 95 90 80 70 54 30 12 3 2
98 98 95 91 92 98 100 99 100 98 100 106 105 103 101 104 111 112 105 94 86 117 120 99 93 89 88 98 101 97 102 104 102 97 93 90 81 62 44 32 19 9 8 5
100 100 99 96 91 89 96 104 105 103 103 109 113 117 115 110 111 112 108 96 52 79 96 98 96 97 93 100 99 99 99 100 101 100 96 88 76 59 43 37 31 23 15 7
97 99 99 99 96 87 82 90 99 103 103 103 107 113 114 113 109 95 86 114 127 113 102 96 100 109 108 101 94 96 97 97 92 87 82 77 76 65 46 38 32 21 11 1
91 94 94 95 97 93 81 79 89 100 107 112 118 124 123 123 123 121 114 115 117 112 106 104 113 112 105 96 95 93 93 93 90 85 80 74 66 58 46 34 23 11 359 348
92 91 91 92 93 91 84 75 77 82 87 87 93 110 118 112 87 75 111 123 118 110 102 110 110 106 101 96 96 92 90 93 96 94 88 83 78 71 35 356 353 342 333 332
93 96 99 98 95 98 103 97 87 83 85 83 82 87 92 105 119 119 112 116 118 108 101 108 109 106 103 109 109 105 101 109 123 123 112 113 123 206 273 300 315 314 316 317
91 92 91 94 104 111 110 105 101 98 102 99 84 79 84 89 101 103 103 110 111 107 104 104 105 103 104 110 115 121 121 121 121 128 158 194 220 230 254 278 295 300 303 304
85 83 84 76 67 81 97 104 111 115 117 118 108 94 94 97 101 105 108 108 108 105 105 106 108 112 118 129 137 140 145 150 159 184 210 226 234 241 252 263 275 284 291 295